TimeCST,TemperatureF,Dew PointF,Humidity,Sea Level PressureIn,VisibilityMPH,Wind Direction,Wind SpeedMPH,Gust SpeedMPH,PrecipitationIn,Events,Conditions,WindDirDegrees,DateUTC
12:58 AM,40.5,35.1,81,30.26,10.0,NE,3.5,-,N/A,,Clear,50,2013-12-19 06:58:00
1:58 AM,43.3,37.6,80,30.25,10.0,ENE,5.8,-,N/A,,Clear,70,2013-12-19 07:58:00
2:58 AM,43.5,37.2,78,30.26,10.0,ENE,6.9,-,N/A,,Clear,70,2013-12-19 08:58:00
3:58 AM,44.1,37.8,78,30.25,10.0,ENE,6.9,-,N/A,,Clear,70,2013-12-19 09:58:00
4:58 AM,44.1,37.9,79,30.24,10.0,ENE,6.9,-,N/A,,Clear,60,2013-12-19 10:58:00
5:58 AM,43.3,37.4,80,30.25,10.0,ENE,5.8,-,N/A,,Clear,60,2013-12-19 11:58:00
6:58 AM,42.4,36.1,78,30.26,10.0,ENE,4.6,-,N/A,,Clear,60,2013-12-19 12:58:00
7:58 AM,47.5,38.3,70,30.27,10.0,East,6.9,-,N/A,,Clear,80,2013-12-19 13:58:00
8:58 AM,55.8,40.6,57,30.28,10.0,East,8.1,-,0.00,,Clear,100,2013-12-19 14:58:00
9:58 AM,58.8,42.8,55,30.29,10.0,East,10.4,-,0.00,,Clear,90,2013-12-19 15:58:00
10:58 AM,61.2,45.7,57,30.27,10.0,East,10.4,-,0.00,,Light Drizzle,100,2013-12-19 16:58:00
11:01 AM,60.8,46.4,59,30.26,10.0,ESE,9.2,-,N/A,,Clear,110,2013-12-19 17:01:00
11:58 AM,62.4,47.5,58,30.24,10.0,East,10.4,-,N/A,,Clear,90,2013-12-19 17:58:00
12:58 PM,64.2,50.2,60,30.21,10.0,East,12.7,-,N/A,,Clear,100,2013-12-19 18:58:00
1:58 PM,63.3,50.4,63,30.20,10.0,East,8.1,-,N/A,,Clear,90,2013-12-19 19:58:00
2:58 PM,62.8,51.4,66,30.18,10.0,East,9.2,-,0.00,,Clear,100,2013-12-19 20:58:00
3:58 PM,62.8,52.3,69,30.18,10.0,East,10.4,-,N/A,,Clear,100,2013-12-19 21:58:00
4:58 PM,61.0,52.9,75,30.17,10.0,ESE,9.2,-,N/A,,Clear,110,2013-12-19 22:58:00
5:58 PM,60.4,52.7,76,30.19,10.0,SE,9.2,-,N/A,,Clear,130,2013-12-19 23:58:00
6:58 PM,60.4,52.5,75,30.19,10.0,ESE,6.9,-,N/A,,Clear,120,2013-12-20 00:58:00
7:23 PM,60.8,53.6,77,30.18,10.0,ESE,8.1,-,N/A,,Mostly Cloudy,120,2013-12-20 01:23:00
7:43 PM,60.8,53.6,77,30.17,10.0,ESE,9.2,-,N/A,,Scattered Clouds,120,2013-12-20 01:43:00
7:58 PM,61.0,53.4,76,30.19,10.0,ESE,9.2,-,N/A,,Partly Cloudy,120,2013-12-20 01:58:00
8:58 PM,59.5,52.5,78,30.19,10.0,ESE,6.9,-,N/A,,Partly Cloudy,120,2013-12-20 02:58:00
9:58 PM,61.0,51.8,72,30.18,10.0,ESE,10.4,-,N/A,,Clear,120,2013-12-20 03:58:00
10:58 PM,61.2,54.9,80,30.16,10.0,SE,11.5,-,N/A,,Clear,130,2013-12-20 04:58:00
11:58 PM,60.8,55.9,84,30.14,10.0,ESE,8.1,-,N/A,,Clear,120,2013-12-20 05:58:00